Franklin, NC

7:16 PM EDT on June 28, 2017 (GMT -0400)
Franklin

Weather History for K1A5 - December, 2011

Change the Weather History Date:

Sunday, December 11, 2011

  Actual Average (KTOC) Record (KTOC)
Temperature  
Mean Temperature 34 °F -  
Max Temperature 50 °F 54 °F 69 °F (2015)
Min Temperature 19 °F 36 °F 27 °F (2014)
Degree Days  
Heating Degree Days 30    
Moisture  
Dew Point 21 °F    
Average Humidity 71    
Maximum Humidity 93    
Minimum Humidity 27    
Precipitation  
Precipitation 0.00 in - - ()
Sea Level Pressure  
Sea Level Pressure 30.45 in    
Wind  
Wind Speed 0 mph (South)    
Max Wind Speed 5 mph    
Max Gust Speed -    
Visibility 10 miles    
Events      
Averages and records for this station are not official NWS values.
T = Trace of Precipitation, MM = Missing Value Source: NWS Daily Summary

Daily Weather History Graph

Daily Weather History Graph

Search for Another Location

Airport or City:

Trip Planner

Search our weather history database for the weather conditions in past years. The results will help you decide how hot, cold, wet, or windy it might be!

Date:

Astronomy

Dec. 11, 2011 Rise Set
Actual Time 7:31 AM EST 5:21 PM EST
Civil Twilight 7:03 AM EST 5:49 PM EST
Nautical Twilight 6:32 AM EST 6:21 PM EST
Astronomical Twilight 6:01 AM EST 6:52 PM EST
Moon 6:30 PM EST (12/11) 8:19 AM EST (12/11)
Length of Visible Light 10h 46m
Length of Day
9h 49m
Full, 99% of the Moon is Illuminated
Dec 11
Full
Dec 17
Last Quarter
Dec 24
New
Jan 1
First Quarter
Jan 9
Full

Hourly Weather History & Observations

Time (EST) Temp. Windchill Dew Point Humidity Pressure Visibility Wind Dir Wind Speed Gust Speed Precip Events Conditions
12:15 AM 23.0 °F - 21.2 °F 93% 30.42 in 10.0 mi Calm Calm - N/A   Clear
12:35 AM 23.0 °F - 21.2 °F 93% 30.43 in 10.0 mi Calm Calm - N/A   Clear
12:55 AM 23.0 °F - 19.4 °F 86% 30.42 in 10.0 mi Calm Calm - N/A   Clear
1:15 AM 23.0 °F - 19.4 °F 86% 30.43 in 10.0 mi Calm Calm - N/A   Clear
1:35 AM 21.2 °F - 19.4 °F 93% 30.43 in 10.0 mi Calm Calm - N/A   Clear
1:55 AM 23.0 °F - 19.4 °F 86% 30.44 in 10.0 mi Calm Calm - N/A   Clear
2:15 AM 21.2 °F - 19.4 °F 93% 30.43 in 10.0 mi Calm Calm - N/A   Clear
2:35 AM 21.2 °F - 19.4 °F 93% 30.44 in 10.0 mi Calm Calm - N/A   Clear
2:55 AM 21.2 °F - 17.6 °F 86% 30.44 in 10.0 mi Calm Calm - N/A   Clear
3:15 AM 21.2 °F - 19.4 °F 93% 30.45 in 10.0 mi Calm Calm - N/A   Clear
3:35 AM 21.2 °F - 17.6 °F 86% 30.46 in 10.0 mi Calm Calm - N/A   Clear
3:55 AM 21.2 °F - 17.6 °F 86% 30.46 in 10.0 mi Calm Calm - N/A   Clear
4:15 AM 19.4 °F - 17.6 °F 93% 30.46 in 10.0 mi Calm Calm - N/A   Clear
4:35 AM 21.2 °F - 17.6 °F 86% 30.46 in 10.0 mi Calm Calm - N/A   Clear
4:55 AM 19.4 °F - 17.6 °F 93% 30.47 in 10.0 mi Calm Calm - N/A   Clear
5:15 AM 19.4 °F - 17.6 °F 93% 30.47 in 10.0 mi Calm Calm - N/A   Clear
5:35 AM 19.4 °F - 17.6 °F 93% 30.47 in 10.0 mi Calm Calm - N/A   Clear
5:55 AM 19.4 °F - 17.6 °F 93% 30.46 in 10.0 mi Calm Calm - N/A   Clear
6:15 AM 19.4 °F - 15.8 °F 86% 30.47 in 10.0 mi Calm Calm - N/A   Clear
6:35 AM 19.4 °F - 15.8 °F 86% 30.47 in 10.0 mi Calm Calm - N/A   Clear
6:55 AM 19.4 °F - 15.8 °F 86% 30.48 in 10.0 mi Calm Calm - N/A   Clear
7:15 AM 19.4 °F - 15.8 °F 86% 30.48 in 10.0 mi Calm Calm - N/A   Clear
7:35 AM 19.4 °F - 15.8 °F 86% 30.48 in 10.0 mi Calm Calm - N/A   Clear
7:55 AM 19.4 °F - 15.8 °F 86% 30.49 in 10.0 mi Calm Calm - N/A   Clear
8:15 AM 19.4 °F - 15.8 °F 86% 30.49 in 10.0 mi Calm Calm - N/A   Clear
8:35 AM 21.2 °F - 19.4 °F 93% 30.50 in 10.0 mi Calm Calm - N/A   Clear
8:55 AM 23.0 °F - 21.2 °F 93% 30.51 in 10.0 mi Calm Calm - N/A   Clear
9:15 AM 26.6 °F - 23.0 °F 86% 30.51 in 10.0 mi Calm Calm - N/A   Clear
9:35 AM 28.4 °F - 23.0 °F 80% 30.52 in 10.0 mi Calm Calm - N/A   Clear
10:15 AM 32.0 °F - 26.6 °F 80% 30.51 in 10.0 mi Calm Calm - N/A   Clear
10:35 AM 32.0 °F - 28.4 °F 87% 30.51 in 10.0 mi Calm Calm - N/A   Clear
10:55 AM 33.8 °F - 28.4 °F 81% 30.51 in 10.0 mi Calm Calm - N/A   Clear
11:15 AM 37.4 °F - 28.4 °F 70% 30.51 in 10.0 mi Calm Calm - N/A   Clear
11:35 AM 41.0 °F - 28.4 °F 61% 30.49 in 10.0 mi Calm Calm - N/A   Clear
12:15 PM 42.8 °F - 28.4 °F 57% 30.48 in 10.0 mi Calm Calm - N/A   Clear
12:35 PM 44.6 °F - 26.6 °F 49% 30.47 in 10.0 mi Calm Calm - N/A   Clear
12:55 PM 44.6 °F 42.2 °F 26.6 °F 49% 30.45 in 10.0 mi North 4.6 mph - N/A   Clear
1:15 PM 46.4 °F 45.2 °F 26.6 °F 46% 30.44 in 10.0 mi North 3.5 mph - N/A   Clear
1:35 PM 46.4 °F - 26.6 °F 46% 30.43 in 10.0 mi Calm Calm - N/A   Clear
1:55 PM 46.4 °F - 24.8 °F 43% 30.42 in 10.0 mi Calm Calm - N/A   Clear
2:15 PM 48.2 °F - 23.0 °F 37% 30.41 in 10.0 mi Calm Calm - N/A   Clear
2:35 PM 48.2 °F - 23.0 °F 37% 30.40 in 10.0 mi Calm Calm - N/A   Clear
2:55 PM 46.4 °F - 21.2 °F 37% 30.40 in 10.0 mi Calm Calm - N/A   Clear
3:15 PM 48.2 °F - 21.2 °F 34% 30.40 in 10.0 mi Calm Calm - N/A   Clear
3:35 PM 50.0 °F - 17.6 °F 28% 30.39 in 10.0 mi North 3.5 mph - N/A   Clear
3:55 PM 48.2 °F - 15.8 °F 27% 30.40 in 10.0 mi North 3.5 mph - N/A   Clear
4:15 PM 48.2 °F - 17.6 °F 30% 30.40 in 10.0 mi Calm Calm - N/A   Clear
4:35 PM 46.4 °F 44.3 °F 17.6 °F 32% 30.40 in 10.0 mi North 4.6 mph - N/A   Clear
4:55 PM 44.6 °F - 15.8 °F 31% 30.40 in 10.0 mi Calm Calm - N/A   Clear
5:15 PM 44.6 °F 42.2 °F 14.0 °F 29% 30.41 in 10.0 mi North 4.6 mph - N/A   Clear
5:35 PM 42.8 °F 41.1 °F 14.0 °F 31% 30.41 in 10.0 mi North 3.5 mph - N/A   Clear
6:15 PM 37.4 °F - 21.2 °F 52% 30.42 in 10.0 mi Calm Calm - N/A   Clear
6:35 PM 35.6 °F - 23.0 °F 60% 30.42 in 10.0 mi Calm Calm - N/A   Clear
6:55 PM 35.6 °F - 23.0 °F 60% 30.43 in 10.0 mi Calm Calm - N/A   Clear
7:15 PM 33.8 °F - 26.6 °F 75% 30.43 in 10.0 mi Calm Calm - N/A   Clear
7:35 PM 32.0 °F - 26.6 °F 80% 30.43 in 10.0 mi Calm Calm - N/A   Clear
7:55 PM 32.0 °F - 26.6 °F 80% 30.44 in 10.0 mi Calm Calm - N/A   Clear
8:15 PM 32.0 °F - 26.6 °F 80% 30.44 in 10.0 mi Calm Calm - N/A   Clear
8:35 PM 32.0 °F - 26.6 °F 80% 30.43 in 10.0 mi Calm Calm - N/A   Clear
8:55 PM 32.0 °F - 26.6 °F 80% 30.44 in 10.0 mi Calm Calm - N/A   Clear
9:15 PM 32.0 °F - 26.6 °F 80% 30.44 in 10.0 mi Calm Calm - N/A   Clear
9:35 PM 32.0 °F - 26.6 °F 80% 30.45 in 10.0 mi Calm Calm - N/A   Clear
9:55 PM 32.0 °F - 28.4 °F 87% 30.45 in 10.0 mi Calm Calm - N/A   Clear
10:15 PM 32.0 °F - 28.4 °F 87% 30.45 in 10.0 mi Calm Calm - N/A   Scattered Clouds
10:35 PM 32.0 °F - 26.6 °F 80% 30.45 in 10.0 mi Calm Calm - N/A   Scattered Clouds
10:55 PM 32.0 °F - 28.4 °F 87% 30.45 in 10.0 mi Calm Calm - N/A   Mostly Cloudy
11:15 PM 32.0 °F - 26.6 °F 80% 30.45 in 10.0 mi Calm Calm - N/A   Overcast
11:35 PM 33.8 °F - 28.4 °F 81% 30.45 in 10.0 mi Calm Calm - N/A   Overcast